Home   Weather   Kakata   Past weeks
Flag for Liberia

Past Weather in Kakata, Liberia — Yesterday and Last 2 Weeks

Now
88 °F

Partly sunny.


Feels Like: 105 °F
Forecast: 82 / 75 °F
Wind: No wind

Location: Roberts Field

Current Time: May 23, 2019 at 12:01:40 pm

Latest Report: May 23, 2019 at 11:00 am


Visibility: N/A

Pressure: 29.89 "Hg

Humidity: 79%

Dew Point: 81 °F

Location of KakataLocation

Past Weather in Kakata — Graph

°F

Kakata Temperature Yesterday

Maximum temperature yesterday: 90 °F (at 1:00 pm)
Minimum temperature yesterday: 77 °F (at 5:00 am)
Average temperature yesterday: 83 °F

High & Low Weather Summary for the Past Weeks

 TemperatureHumidityPressure
High93 °F (May 10, 12:00 pm)100% (May 10, 6:00 am)29.95 "Hg (May 10, 6:00 am)
Low75 °F (May 8, 10:00 am)56% (May 10, 12:00 pm)29.74 "Hg (May 13, 5:00 pm)
Average82 °F85%29.85 "Hg
* Reported May 8 10:00 am — May 23 10:00 am, Kakata. Weather by CustomWeather, © 2019

Note: Actual official high and low records may vary slightly from our data, if they occured in-between our weather recording intervals... More about our weather records

Advertising

Kakata Weather History for the Previous 24 Hours

Scroll right to see more
 ConditionsComfort  
Time TempWeatherWind HumidityBarometerVisibility
10:00 am
Thu, May 23
86 °FPartly sunny.No wind79%29.89 "HgN/A
9:00 am82 °FPartly sunny.No wind89%29.86 "HgN/A
8:00 am81 °FThunderstorms. Partly sunny.No wind94%29.86 "Hg6 mi
7:00 am79 °FThunderstorms. Passing clouds.No wind94%29.86 "Hg4 mi
6:00 am79 °FPassing clouds.No wind94%29.83 "Hg4 mi
3:00 am79 °FPassing clouds.No wind94%29.83 "HgN/A
2:00 am79 °FPassing clouds.No wind94%29.83 "HgN/A
1:00 am79 °FPassing clouds.No wind94%29.86 "HgN/A
12:00 am79 °FPassing clouds.No wind94%29.86 "HgN/A
11:00 pm
Wed, May 22
79 °FPassing clouds.No wind94%29.86 "HgN/A
10:00 pm81 °FPassing clouds.No wind94%29.86 "HgN/A
9:00 pm81 °FPassing clouds.No wind94%29.86 "HgN/A
8:00 pm81 °FPassing clouds.No wind89%29.83 "HgN/A
7:00 pm82 °FScattered clouds.No wind84%29.80 "HgN/A
4:00 pm90 °FPartly sunny.12 mph67%29.80 "HgN/A
3:00 pm90 °FPartly sunny.14 mph71%29.80 "HgN/A
2:00 pm90 °FPartly sunny.14 mph71%29.83 "HgN/A
1:00 pm90 °FPartly sunny.12 mph71%29.86 "HgN/A
12:00 pm88 °FPartly sunny.6 mph75%29.89 "HgN/A
Weather by CustomWeather, © 2019

See weather overview